EW7351 Weather Reports


Display with metric or nautical units.
time (UTC)temp
F
wind
direction
speed
MPH
gust
MPH
rain 1hr
in
rain 24hr
in
rain mn
in
humidity
%
barometer
mb
20260506113509 56 317 4.0 10.0 0.00 0.00 0.00 72 1010.5
20260506112721 56 345 4.0 11.0 0.00 0.00 0.00 72 1010.6
20260506112218 56 14 4.0 11.0 0.00 0.00 0.00 72 1010.7
20260506111706 56 316 5.0 12.0 0.00 0.00 0.00 72 1010.4
20260506111209 56 72 4.0 12.0 0.00 0.00 0.00 72 1010.4
20260506110650 56 30 4.0 10.0 0.00 0.00 0.00 71 1010.4
20260506110122 56 1 4.0 12.0 0.00 0.00 0.00 71 1010.2
20260506105559 57 16 4.0 12.0 0.00 0.00 0.00 70 1010.1
20260506105033 57 321 4.0 10.0 0.00 0.00 0.00 70 1009.9
20260506104528 57 27 4.0 10.0 0.00 0.00 0.00 70 1009.9
20260506104026 57 340 4.0 9.0 0.00 0.00 0.00 69 1009.8
20260506103502 57 27 3.0 9.0 0.00 0.00 0.00 69 1009.6
20260506103214 57 321 3.0 9.0 0.00 0.00 0.00 69 1009.5
20260506102724 57 352 3.0 9.0 0.00 0.00 0.00 69 1009.4
20260506101927 57 35 4.0 8.0 0.00 0.00 0.00 69 1009.3
20260506101401 58 9 3.0 8.0 0.00 0.00 0.00 69 1009.2
20260506100836 58 82 3.0 7.0 0.00 0.00 0.00 69 1009.1
20260506100307 58 333 3.0 8.0 0.00 0.00 0.00 69 1009.1
20260506095738 58 26 3.0 9.0 0.00 0.00 0.00 69 1009.1
20260506095458 58 96 2.0 9.0 0.00 0.00 0.00 70 1009.0
20260506094706 58 23 2.0 5.0 0.00 0.00 0.00 70 1009.0
20260506094204 58 1 3.0 7.0 0.00 0.00 0.00 69 1009.0
20260506093925 58 342 3.0 7.0 0.00 0.00 0.00 69 1009.0
20260506093203 58 324 2.0 7.0 0.00 0.00 0.00 69 1009.0
20260506092632 58 352 2.0 9.0 0.00 0.00 0.00 70 1009.1
20260506092130 58 350 3.0 9.0 0.00 0.00 0.00 69 1008.9
20260506092104 58 345 3.0 9.0 0.00 0.00 0.00 69 1008.8
20260506091557 58 347 2.0 9.0 0.00 0.00 0.00 69 1008.9
20260506090613 58 2 2.0 8.0 0.00 0.00 0.00 69 1008.8
20260506090114 58 9 3.0 8.0 0.00 0.00 0.00 69 1008.7
20260506085828 58 18 2.0 7.0 0.00 0.00 0.00 69 1008.6
20260506085058 58 338 3.0 10.0 0.00 0.00 0.00 69 1008.5
20260506084600 58 337 3.0 10.0 0.00 0.00 0.00 70 1008.5
20260506084029 58 328 3.0 8.0 0.00 0.00 0.00 69 1008.6
20260506083505 59 9 1.0 5.0 0.00 0.00 0.00 71 1008.5
20260506082940 59 14 2.0 7.0 0.00 0.00 0.00 70 1008.4
20260506082418 59 12 2.0 7.0 0.00 0.00 0.00 70 1008.1
20260506081918 59 338 2.0 7.0 0.00 0.00 0.00 70 1008.1
20260506081352 59 50 3.0 7.0 0.00 0.00 0.00 70 1008.2
20260506080846 59 356 3.0 7.0 0.00 0.00 0.00 71 1008.3
20260506080346 59 330 3.0 7.0 0.00 0.00 0.00 71 1008.3
20260506073214 60 345 2.0 8.0 0.00 0.00 0.00 71 1008.3
20260506072649 60 23 3.0 8.0 0.00 0.00 0.00 71 1008.4
20260506072128 60 356 3.0 8.0 0.00 0.00 0.00 71 1008.3
20260506071826 60 25 2.0 8.0 0.00 0.00 0.00 71 1008.4
20260506071035 60 326 2.0 8.0 0.00 0.00 0.00 71 1008.5
20260506070538 60 39 4.0 9.0 0.00 0.00 0.00 72 1008.3
20260506062314 62 359 2.0 6.0 0.00 0.00 0.00 72 1008.2
20260506061747 62 340 2.0 6.0 0.00 0.00 0.00 72 1008.3
20260506061224 62 359 3.0 9.0 0.00 0.00 0.00 72 1008.2
20260506060914 62 4 3.0 9.0 0.00 0.00 0.00 72 1008.1
20260506060200 62 44 3.0 7.0 0.00 0.00 0.00 72 1008.0
20260506050909 64 344 3.0 10.0 0.00 0.00 0.00 72 1008.0
20260506050346 64 346 3.0 10.0 0.00 0.00 0.00 72 1007.8
20260506044813 65 14 3.0 9.0 0.00 0.00 0.00 71 1007.8
20260506044311 65 350 3.0 10.0 0.00 0.00 0.00 71 1007.8
20260506043756 66 344 4.0 10.0 0.00 0.00 0.00 70 1007.7
20260506043243 66 39 3.0 9.0 0.00 0.00 0.00 71 1007.6
20260506042742 67 343 2.0 8.0 0.00 0.00 0.00 70 1007.7
20260506042243 67 320 3.0 8.0 0.00 0.00 0.00 71 1007.5
20260506042007 67 49 3.0 10.0 0.00 0.00 0.00 70 1007.3
20260506041243 68 349 3.0 10.0 0.00 0.00 0.00 70 1007.2
20260506040739 68 21 3.0 7.0 0.00 0.00 0.00 69 1007.2
20260506040240 69 351 4.0 11.0 0.00 0.00 0.00 69 1007.2
20260506035709 69 354 5.0 11.0 0.00 0.00 0.00 69 1007.3
20260506035206 69 34 4.0 10.0 0.00 0.00 0.00 69 1007.1
20260506034652 70 327 3.0 12.0 0.00 0.00 0.00 69 1007.1
20260506034153 70 27 3.0 8.0 0.00 0.00 0.00 69 1007.0
20260506033647 70 12 3.0 11.0 0.00 0.00 0.00 69 1006.8
20260506033144 70 23 4.0 11.0 0.00 0.00 0.00 69 1007.1
20260506032620 70 18 4.0 9.0 0.00 0.00 0.00 68 1006.8
20260506032113 71 349 4.0 9.0 0.00 0.00 0.00 68 1006.4
20260506031612 71 2 4.0 9.0 0.00 0.00 0.00 68 1006.6
20260506031113 71 17 4.0 11.0 0.00 0.00 0.00 68 1006.8
20260506030845 71 304 4.0 11.0 0.00 0.00 0.00 68 1006.7
20260506030048 72 355 5.0 14.0 0.00 0.00 0.00 67 1006.3
20260506025544 73 347 5.0 14.0 0.00 0.00 0.00 67 1006.2
20260506025045 73 349 5.0 12.0 0.00 0.00 0.00 66 1005.9
20260506024537 74 29 4.0 12.0 0.00 0.00 0.00 66 1005.9
20260506024037 74 15 4.0 8.0 0.00 0.00 0.00 65 1005.7
20260506023513 74 33 3.0 8.0 0.00 0.00 0.00 65 1005.5
20260506023011 74 347 2.0 7.0 0.00 0.00 0.00 65 1005.3
20260506022459 74 344 2.0 8.0 0.00 0.00 0.00 65 1005.1
20260506022002 74 23 2.0 8.0 0.00 0.00 0.00 65 1004.9
20260506021457 74 345 1.0 5.0 0.00 0.00 0.00 64 1004.7
20260506021000 74 333 2.0 10.0 0.00 0.00 0.00 64 1004.9
20260506020456 75 340 2.0 10.0 0.00 0.00 0.00 64 1004.7
20260506015954 75 338 3.0 6.0 0.00 0.00 0.00 63 1004.7
20260506015423 75 347 2.0 7.0 0.00 0.00 0.00 63 1004.8
20260506014919 75 345 2.0 7.0 0.00 0.00 0.00 63 1004.8
20260506014415 75 359 2.0 7.0 0.00 0.00 0.00 63 1004.4
20260506013914 76 32 3.0 9.0 0.00 0.00 0.00 63 1004.5
20260506013349 76 310 3.0 9.0 0.00 0.00 0.00 63 1004.3
20260506012823 76 308 3.0 8.0 0.00 0.00 0.00 63 1004.4
20260506012253 77 340 3.0 8.0 0.00 0.00 0.00 62 1004.6
20260506012012 78 325 2.0 8.0 0.00 0.00 0.00 62 1004.3
20260506011237 78 345 2.0 7.0 0.00 0.00 0.00 61 1004.0
20260506010734 78 9 1.0 4.0 0.00 0.00 0.00 61 1003.9
20260506010211 79 39 1.0 4.0 0.00 0.00 0.00 61 1003.9
20260506005705 79 328 1.0 4.0 0.00 0.00 0.00 61 1003.8
20260506005204 79 10 0.0 4.0 0.00 0.00 0.00 61 1003.9
20260506004639 79 236 0.0 4.0 0.00 0.00 0.00 61 1003.9
20260506004109 79 236 1.0 4.0 0.00 0.00 0.00 61 1004.0
20260506003607 79 231 2.0 9.0 0.00 0.00 0.00 63 1003.7
20260506003042 80 262 2.0 9.0 0.00 0.00 0.00 65 1003.6
20260506002537 80 161 3.0 8.0 0.00 0.00 0.00 74 1003.8
20260506002035 81 224 4.0 9.0 0.00 0.00 0.00 72 1003.8
20260506001514 82 214 3.0 9.0 0.00 0.00 0.00 71 1003.9
20260506001015 82 113 3.0 8.0 0.00 0.00 0.00 68 1003.5
20260506000516 83 229 4.0 10.0 0.00 0.00 0.00 66 1003.3
20260505235947 83 139 3.0 10.0 0.00 0.00 0.00 65 1003.1
20260505235930 83 266 4.0 9.0 0.00 0.00 0.00 65 1002.7
20260505234942 84 129 7.0 16.0 0.00 0.00 0.00 65 1002.7
20260505234638 84 225 7.0 16.0 0.00 0.00 0.00 64 1002.4
20260505233908 84 226 6.0 13.0 0.00 0.00 0.00 64 1002.6
20260505233344 84 177 6.0 13.0 0.00 0.00 0.00 63 1002.7
20260505233041 85 97 6.0 13.0 0.00 0.00 0.00 63 1002.6
20260505232312 85 174 5.0 12.0 0.00 0.00 0.00 62 1002.4
20260505231747 85 263 4.0 12.0 0.00 0.00 0.00 62 1002.5
20260505231219 85 210 5.0 12.0 0.00 0.00 0.00 62 1002.5
20260505230717 85 173 5.0 12.0 0.00 0.00 0.00 62 1002.5
20260505230213 86 240 4.0 10.0 0.00 0.00 0.00 61 1002.4
20260505225649 86 177 4.0 9.0 0.00 0.00 0.00 61 1002.4
20260505225137 86 166 4.0 8.0 0.00 0.00 0.00 61 1002.4
20260505224638 86 231 4.0 11.0 0.00 0.00 0.00 61 1002.3
20260505224133 85 170 4.0 11.0 0.00 0.00 0.00 62 1002.4
20260505224118 86 135 5.0 10.0 0.00 0.00 0.00 62 1002.2
20260505223103 86 70 5.0 10.0 0.00 0.00 0.00 61 1002.0
20260505222540 87 136 5.0 10.0 0.00 0.00 0.00 58 1002.1
20260505222012 87 191 5.0 10.0 0.00 0.00 0.00 57 1002.1
20260505221731 87 202 4.0 10.0 0.00 0.00 0.00 56 1002.2
20260505220941 88 151 4.0 11.0 0.00 0.00 0.00 56 1002.2
20260505220438 88 182 4.0 11.0 0.00 0.00 0.00 56 1002.1
20260505215937 88 141 4.0 9.0 0.00 0.00 0.00 57 1002.1
20260505215634 88 224 3.0 7.0 0.00 0.00 0.00 55 1002.1
20260505214910 88 254 4.0 14.0 0.00 0.00 0.00 53 1002.2
20260505214341 89 251 4.0 14.0 0.00 0.00 0.00 54 1002.4
20260505213841 89 262 3.0 9.0 0.00 0.00 0.00 53 1002.4
20260505213316 89 144 5.0 13.0 0.00 0.00 0.00 53 1002.3
20260505212747 89 213 6.0 13.0 0.00 0.00 0.00 52 1002.4
20260505212501 89 210 5.0 12.0 0.00 0.00 0.00 53 1002.5
20260505211932 88 165 5.0 13.0 0.00 0.00 0.00 54 1002.5
20260505211153 88 231 5.0 13.0 0.00 0.00 0.00 53 1002.5
20260505210921 88 220 5.0 15.0 0.00 0.00 0.00 52 1002.5
20260505210354 88 277 7.0 15.0 0.00 0.00 0.00 53 1002.5
20260505205852 88 221 7.0 16.0 0.00 0.00 0.00 53 1002.7
20260505205116 88 231 6.0 16.0 0.00 0.00 0.00 53 1002.6
20260505204550 88 127 6.0 12.0 0.00 0.00 0.00 55 1002.9
20260505204248 88 213 6.0 14.0 0.00 0.00 0.00 54 1003.0
20260505203500 88 120 7.0 14.0 0.00 0.00 0.00 54 1002.9
20260505203207 88 208 7.0 13.0 0.00 0.00 0.00 54 1002.9
20260505202413 87 223 6.0 13.0 0.00 0.00 0.00 56 1003.0
20260505201909 88 214 6.0 16.0 0.00 0.00 0.00 55 1003.1
20260505201351 87 133 7.0 16.0 0.00 0.00 0.00 55 1003.1
20260505200842 87 217 6.0 13.0 0.00 0.00 0.00 58 1003.3
20260505200316 87 139 6.0 13.0 0.00 0.00 0.00 55 1003.1
20260505200018 87 240 5.0 13.0 0.00 0.00 0.00 55 1003.2
20260505195224 87 245 5.0 13.0 0.00 0.00 0.00 58 1003.1
20260505194921 86 243 7.0 13.0 0.00 0.00 0.00 60 1003.2
20260505194134 86 124 7.0 13.0 0.00 0.00 0.00 58 1003.4
20260505193631 86 128 6.0 13.0 0.00 0.00 0.00 60 1003.2
20260505193131 85 229 7.0 16.0 0.00 0.00 0.00 60 1003.1
20260505192600 85 236 7.0 16.0 0.00 0.00 0.00 60 1003.3
20260505192318 85 217 7.0 15.0 0.00 0.00 0.00 60 1003.3
20260505191819 84 161 7.0 15.0 0.00 0.00 0.00 60 1003.3
20260505191322 84 191 6.0 15.0 0.00 0.00 0.00 61 1003.4
20260505190600 84 237 6.0 14.0 0.00 0.00 0.00 61 1003.4
20260505190035 84 210 6.0 14.0 0.00 0.00 0.00 61 1003.5
20260505185537 83 240 7.0 14.0 0.00 0.00 0.00 62 1003.5
20260505185006 83 154 6.0 16.0 0.00 0.00 0.00 61 1003.5
20260505184505 83 166 7.0 16.0 0.00 0.00 0.00 63 1003.6
20260505184005 83 219 8.0 16.0 0.00 0.00 0.00 62 1003.6
20260505183503 83 202 8.0 14.0 0.00 0.00 0.00 61 1003.6
20260505182959 83 174 8.0 15.0 0.00 0.00 0.00 62 1003.6
20260505182653 83 136 8.0 14.0 0.00 0.00 0.00 62 1003.6
20260505181927 83 231 8.0 18.0 0.00 0.00 0.00 62 1003.7
20260505181424 83 228 9.0 18.0 0.00 0.00 0.00 62 1003.7
20260505180920 83 143 8.0 14.0 0.00 0.00 0.00 61 1003.7
20260505180416 83 141 8.0 13.0 0.00 0.00 0.00 61 1003.7
20260505175914 83 224 9.0 15.0 0.00 0.00 0.00 62 1003.7
20260505175344 83 173 8.0 15.0 0.00 0.00 0.00 61 1003.7
20260505174845 83 234 7.0 13.0 0.00 0.00 0.00 61 1003.8
20260505174545 83 204 7.0 13.0 0.00 0.00 0.00 61 1003.8
20260505173802 83 236 7.0 15.0 0.00 0.00 0.00 61 1003.8
20260505173302 83 172 8.0 15.0 0.00 0.00 0.00 62 1003.7
20260505172732 83 174 8.0 16.0 0.00 0.00 0.00 63 1003.8
20260505172218 82 257 8.0 16.0 0.00 0.00 0.00 62 1003.7
20260505171718 82 150 8.0 14.0 0.00 0.00 0.00 63 1003.8
20260505171217 81 221 9.0 16.0 0.00 0.00 0.00 63 1003.9
20260505170723 81 160 10.0 21.0 0.00 0.00 0.00 63 1004.0
20260505170434 81 249 9.0 21.0 0.00 0.00 0.00 63 1003.9
20260505165711 81 166 8.0 16.0 0.00 0.00 0.00 64 1003.9
20260505165431 81 205 8.0 16.0 0.00 0.00 0.00 65 1003.9
20260505164705 81 275 8.0 20.0 0.00 0.00 0.00 64 1003.9
20260505164202 81 175 9.0 20.0 0.00 0.00 0.00 64 1003.8
20260505163701 81 257 9.0 19.0 0.00 0.00 0.00 65 1003.8
20260505163137 81 107 9.0 19.0 0.00 0.00 0.00 65 1003.8
20260505162606 80 205 8.0 16.0 0.00 0.00 0.00 66 1003.9
20260505162106 80 210 8.0 17.0 0.00 0.00 0.00 65 1003.6
20260505161537 80 169 8.0 17.0 0.00 0.00 0.00 65 1003.5
20260505161038 80 258 8.0 16.0 0.00 0.00 0.00 66 1003.6
20260505160509 79 136 8.0 17.0 0.00 0.00 0.00 68 1003.6
20260505153357 77 240 9.0 16.0 0.00 0.00 0.00 72 1003.8
20260505153117 77 182 9.0 15.0 0.00 0.00 0.00 72 1003.7
20260505152617 76 174 8.0 17.0 0.00 0.00 0.00 72 1003.8
20260505151848 76 185 8.0 17.0 0.00 0.00 0.00 73 1003.8
20260505151323 76 221 8.0 18.0 0.00 0.00 0.00 73 1003.9
20260505150754 76 170 7.0 18.0 0.00 0.00 0.00 73 1003.8
20260505150251 75 236 7.0 14.0 0.00 0.00 0.00 74 1003.9
20260505140546 73 143 8.0 19.0 0.00 0.00 0.00 77 1003.6
20260505130244 72 207 6.0 14.0 0.00 0.00 0.00 79 1003.6
20260505124712 71 203 6.0 15.0 0.00 0.00 0.00 79 1003.5
20260505124144 71 176 6.0 14.0 0.00 0.00 0.00 79 1003.3
20260505123643 71 141 7.0 15.0 0.00 0.00 0.00 79 1003.0
20260505123347 71 221 7.0 15.0 0.00 0.00 0.00 79 1003.1
20260505122548 71 214 7.0 18.0 0.00 0.00 0.00 79 1003.1
20260505122313 71 170 7.0 18.0 0.00 0.00 0.00 79 1003.0
20260505121522 71 223 6.0 16.0 0.00 0.00 0.00 79 1003.1
20260505120955 71 231 5.0 11.0 0.00 0.00 0.00 79 1003.0
20260505120649 71 246 5.0 11.0 0.00 0.00 0.00 79 1003.0
20260505120408 71 223 6.0 12.0 0.00 0.00 0.00 79 1002.9
20260505115357 71 229 8.0 16.0 0.00 0.00 0.00 79 1002.9
20260505114855 71 124 8.0 18.0 0.00 0.00 0.00 79 1002.9
20260505114328 71 203 8.0 18.0 0.00 0.00 0.00 79 1002.8
20260505113824 71 179 7.0 16.0 0.00 0.00 0.00 79 1002.7